| time (UTC) | temp C | wind direction | speed KPH | gust KPH | rain 1hr cm | rain 24hr cm | rain mn cm | humidity % | barometer mb |
| 20260506094502 | 11 | 344 | 6.4 | 14.5 | 0.00 | 0.51 | 0.05 | 97 | 1011.0 |
| 20260506093100 | 10 | 350 | 8.0 | 17.7 | 0.00 | 0.51 | 0.05 | 98 | 1010.8 |
| 20260506091559 | 10 | 321 | 9.7 | 17.7 | 0.00 | 0.51 | 0.05 | 98 | 1010.5 |
| 20260506090056 | 10 | 325 | 6.4 | 14.5 | 0.00 | 0.51 | 0.05 | 99 | 1010.6 |
| 20260506084602 | 10 | 330 | 8.0 | 17.7 | 0.00 | 0.69 | 0.05 | 99 | 1010.4 |
| 20260506083054 | 10 | 317 | 6.4 | 19.3 | 0.00 | 0.69 | 0.05 | 99 | 1010.2 |
| 20260506081551 | 10 | 329 | 8.0 | 17.7 | 0.00 | 0.69 | 0.05 | 100 | 1010.0 |
| 20260506073043 | 10 | 335 | 8.0 | 19.3 | 0.03 | 1.22 | 0.05 | 100 | 1009.8 |
| 20260506071539 | 10 | 9 | 9.7 | 22.5 | 0.03 | 1.22 | 0.05 | 100 | 1009.6 |
| 20260506061532 | 10 | 323 | 9.7 | 17.7 | 0.03 | 2.03 | 0.03 | 100 | 1009.0 |
| 20260506044536 | 10 | 314 | 3.2 | 11.3 | 0.00 | 4.09 | 0.00 | 100 | 1008.2 |
| 20260506043026 | 10 | 315 | 8.0 | 12.9 | 0.00 | 4.09 | 0.00 | 100 | 1008.2 |
| 20260506041523 | 10 | 317 | 9.7 | 14.5 | 0.00 | 4.09 | 0.00 | 100 | 1008.2 |
| 20260506040022 | 10 | 280 | 6.4 | 14.5 | 0.00 | 4.09 | 0.00 | 100 | 1008.1 |
| 20260506034522 | 10 | 309 | 3.2 | 9.7 | 0.00 | 4.14 | 0.00 | 100 | 1008.1 |
| 20260506033032 | 10 | 309 | 4.8 | 11.3 | 0.00 | 4.14 | 0.00 | 100 | 1008.2 |
| 20260506031529 | 10 | 321 | 4.8 | 14.5 | 0.00 | 4.14 | 0.00 | 100 | 1008.1 |
| 20260506030040 | 10 | 259 | 1.6 | 9.7 | 0.00 | 4.14 | 0.00 | 100 | 1008.3 |
| 20260506024524 | 11 | 275 | 3.2 | 8.0 | 0.00 | 4.14 | 0.00 | 100 | 1008.4 |
| 20260506023014 | 11 | 309 | 3.2 | 9.7 | 0.00 | 4.14 | 0.00 | 100 | 1008.4 |
| 20260506021512 | 11 | 232 | 3.2 | 9.7 | 0.00 | 4.14 | 0.00 | 100 | 1008.5 |
| 20260506020011 | 11 | 227 | 3.2 | 8.0 | 0.00 | 4.14 | 0.00 | 100 | 1008.6 |
| 20260506014511 | 11 | 265 | 3.2 | 6.4 | 0.00 | 4.14 | 0.00 | 100 | 1008.6 |
| 20260506013010 | 11 | 249 | 1.6 | 6.4 | 0.00 | 4.14 | 0.00 | 100 | 1008.7 |
| 20260506011507 | 11 | 334 | 1.6 | 4.8 | 0.00 | 4.14 | 0.00 | 100 | 1008.6 |
| 20260506010007 | 11 | 302 | 3.2 | 9.7 | 0.00 | 4.14 | 0.00 | 100 | 1008.7 |
| 20260506004514 | 11 | 265 | 1.6 | 8.0 | 0.00 | 4.14 | 0.00 | 100 | 1008.8 |
| 20260506003007 | 11 | 153 | 0.0 | 6.4 | 0.00 | 4.14 | 0.00 | 100 | 1009.0 |
| 20260506001503 | 11 | 265 | 3.2 | 9.7 | 0.00 | 4.14 | 0.00 | 100 | 1009.1 |
| 20260506000006 | 11 | 193 | 3.2 | 9.7 | 0.00 | 4.14 | 0.00 | 100 | 1009.1 |
| 20260505234502 | 11 | 178 | 3.2 | 8.0 | 0.00 | 4.14 | 0.00 | 100 | 1009.2 |
| 20260505233129 | 11 | 185 | 3.2 | 8.0 | 0.00 | 4.14 | 0.00 | 100 | 1009.2 |
| 20260505231559 | 11 | 252 | 1.6 | 8.0 | 0.00 | 4.14 | 0.00 | 100 | 1009.0 |
| 20260505230057 | 11 | 205 | 1.6 | 6.4 | 0.00 | 4.14 | 0.00 | 100 | 1009.1 |
| 20260505224557 | 11 | 309 | 0.0 | 8.0 | 0.00 | 4.14 | 0.00 | 100 | 1009.1 |
| 20260505223055 | 11 | 221 | 0.0 | 3.2 | 0.00 | 4.14 | 0.00 | 100 | 1009.3 |
| 20260505221601 | 11 | 188 | 1.6 | 3.2 | 0.00 | 4.14 | 0.00 | 100 | 1009.3 |
| 20260505220053 | 11 | 178 | 1.6 | 3.2 | 0.00 | 4.14 | 0.00 | 100 | 1009.5 |
| 20260505214551 | 11 | 205 | 0.0 | 3.2 | 0.00 | 4.14 | 4.14 | 100 | 1009.4 |
| 20260505213051 | 11 | 247 | 0.0 | 3.2 | 0.00 | 4.14 | 4.14 | 100 | 1009.4 |
| 20260505211549 | 11 | 265 | 1.6 | 3.2 | 0.00 | 4.14 | 4.14 | 100 | 1009.4 |
| 20260505210048 | 11 | 178 | 1.6 | 6.4 | 0.00 | 4.14 | 4.14 | 99 | 1009.5 |
| 20260505204545 | 11 | 165 | 1.6 | 4.8 | 0.00 | 4.14 | 4.14 | 99 | 1009.4 |
| 20260505203049 | 11 | 178 | 0.0 | 8.0 | 0.00 | 4.14 | 4.14 | 99 | 1009.3 |
| 20260505201543 | 12 | 309 | 1.6 | 8.0 | 0.00 | 4.14 | 4.14 | 99 | 1009.2 |
| 20260505200041 | 12 | 316 | 4.8 | 9.7 | 0.00 | 4.14 | 4.14 | 98 | 1009.0 |
| 20260505194547 | 12 | 309 | 4.8 | 9.7 | 0.00 | 4.14 | 4.14 | 99 | 1009.0 |
| 20260505193100 | 12 | 221 | 3.2 | 9.7 | 0.00 | 4.14 | 4.14 | 99 | 1009.1 |
| 20260505191542 | 12 | 294 | 3.2 | 8.0 | 0.00 | 4.14 | 4.14 | 99 | 1008.9 |
| 20260505190041 | 12 | 178 | 1.6 | 6.4 | 0.00 | 4.14 | 4.14 | 99 | 1009.0 |
| 20260505184639 | 12 | 244 | 1.6 | 3.2 | 0.00 | 4.14 | 4.14 | 98 | 1008.9 |
| 20260505183037 | 12 | 178 | 1.6 | 6.4 | 0.00 | 4.14 | 4.14 | 98 | 1008.8 |
| 20260505181537 | 13 | 22 | 3.2 | 8.0 | 0.00 | 4.14 | 4.14 | 97 | 1008.7 |
| 20260505180039 | 13 | 309 | 1.6 | 8.0 | 0.00 | 4.14 | 4.14 | 96 | 1008.5 |
| 20260505174535 | 13 | 265 | 8.0 | 14.5 | 0.00 | 4.14 | 4.14 | 96 | 1008.4 |
| 20260505173035 | 13 | 244 | 6.4 | 11.3 | 0.00 | 4.14 | 4.14 | 96 | 1008.5 |
| 20260505171538 | 14 | 321 | 8.0 | 14.5 | 0.00 | 4.14 | 4.14 | 97 | 1008.2 |
| 20260505170037 | 13 | 275 | 3.2 | 9.7 | 0.00 | 4.14 | 4.14 | 97 | 1008.3 |
| 20260505164539 | 13 | 316 | 4.8 | 11.3 | 0.03 | 4.14 | 4.14 | 98 | 1008.3 |
| 20260505163040 | 13 | 303 | 6.4 | 19.3 | 0.10 | 4.14 | 4.14 | 97 | 1008.4 |
| 20260505161531 | 13 | 265 | 6.4 | 14.5 | 0.15 | 4.14 | 4.14 | 98 | 1008.3 |
| 20260505153037 | 15 | 259 | 8.0 | 19.3 | 0.05 | 4.01 | 4.01 | 94 | 1008.3 |
| 20260505151529 | 15 | 233 | 11.3 | 19.3 | 0.00 | 3.99 | 3.99 | 93 | 1008.2 |
| 20260505124518 | 15 | 277 | 12.9 | 22.5 | 0.00 | 3.99 | 3.99 | 91 | 1008.3 |
| 20260505123017 | 14 | 252 | 8.0 | 24.1 | 0.00 | 3.99 | 3.99 | 94 | 1008.2 |
| 20260505121512 | 14 | 217 | 8.0 | 17.7 | 0.00 | 3.99 | 3.99 | 98 | 1008.1 |
| 20260505120012 | 13 | 286 | 8.0 | 19.3 | 0.05 | 3.99 | 3.99 | 100 | 1008.1 |
| 20260505114504 | 12 | 153 | 4.8 | 19.3 | 0.10 | 3.99 | 3.99 | 100 | 1008.3 |
| 20260505113108 | 12 | 247 | 6.4 | 16.1 | 0.15 | 3.99 | 3.99 | 100 | 1008.4 |
| 20260505111559 | 12 | 209 | 11.3 | 19.3 | 0.15 | 3.99 | 3.99 | 99 | 1008.5 |
| 20260505110108 | 12 | 232 | 9.7 | 24.1 | 0.15 | 3.94 | 3.94 | 99 | 1008.4 |
| 20260505101553 | 12 | 232 | 6.4 | 24.1 | 0.05 | 3.81 | 3.81 | 99 | 1008.2 |
| 20260505100056 | 12 | 9 | 3.2 | 16.1 | 0.13 | 3.81 | 3.81 | 100 | 1008.1 |